GRL973 EKCH-BIKF

Flight info

Callsign GRL973
Flight time 2h 57m
Altitude 40000
Route GOLGA DCT AMSEV DCT TUKMU DCT ZOL DCT GUNPA/M081F400 DCT 63N010W DCT ING DCT NASBU DCT KFV
Aircraft A339/H-SADE1E2E3GHIJ1J3J5M1P2RWXY/LB2D1

Departure

Time 2026-04-30 06:44
Airport Copenhagen Kastrup Airport (EKCH)

Arrival

Time 2026-04-30 09:42
Airport Keflavik International Airport (BIKF)
Time Latitude Longitude Altitude Speed Heading
2026-04-30 06:24 55.62506 12.65060 27 ft 0 kts 270°
2026-04-30 06:35 55.62506 12.65084 27 ft 2 kts 270°
2026-04-30 06:35 55.62506 12.65111 27 ft 2 kts 270°
2026-04-30 06:36 55.62506 12.65128 27 ft 2 kts 269°
2026-04-30 06:36 55.62509 12.65154 27 ft 2 kts 244°
2026-04-30 06:36 55.62517 12.65176 27 ft 2 kts 224°
2026-04-30 06:36 55.62535 12.65196 27 ft 2 kts 195°
2026-04-30 06:37 55.62545 12.65199 27 ft 1 kts 182°
2026-04-30 06:37 55.62544 12.65199 27 ft 2 kts 182°
2026-04-30 06:37 55.62513 12.65197 27 ft 3 kts 180°
2026-04-30 06:37 55.62506 12.65198 27 ft 0 kts 180°
2026-04-30 06:39 55.62503 12.65198 27 ft 1 kts 180°
2026-04-30 06:40 55.62463 12.65198 27 ft 9 kts 179°
2026-04-30 06:40 55.62394 12.65203 27 ft 10 kts 178°
2026-04-30 06:40 55.62314 12.65204 27 ft 12 kts 188°
2026-04-30 06:40 55.62219 12.65181 25 ft 14 kts 195°
2026-04-30 06:41 55.62126 12.65084 24 ft 16 kts 213°
2026-04-30 06:41 55.62030 12.64973 24 ft 16 kts 214°
2026-04-30 06:41 55.61933 12.64857 24 ft 17 kts 213°
2026-04-30 06:41 55.61831 12.64744 24 ft 17 kts 213°
2026-04-30 06:42 55.61728 12.64625 24 ft 17 kts 214°
2026-04-30 06:42 55.61661 12.64521 24 ft 11 kts 245°
2026-04-30 06:42 55.61645 12.64371 24 ft 13 kts 262°
2026-04-30 06:42 55.61632 12.64216 26 ft 12 kts 264°
2026-04-30 06:43 55.61624 12.64098 28 ft 8 kts 254°
2026-04-30 06:43 55.61589 12.64020 29 ft 9 kts 221°
2026-04-30 06:43 55.61480 12.63849 30 ft 47 kts 223°
2026-04-30 06:43 55.61062 12.63198 27 ft 111 kts 222°
2026-04-30 06:44 55.60343 12.62084 29 ft 162 kts 220°
2026-04-30 06:44 55.59460 12.60755 532 ft 166 kts 224°
2026-04-30 06:44 55.58612 12.59465 1237 ft 162 kts 225°
2026-04-30 06:44 55.57772 12.58177 1857 ft 162 kts 227°
2026-04-30 06:45 55.56902 12.56809 2293 ft 175 kts 229°
2026-04-30 06:45 55.56212 12.55022 2703 ft 182 kts 260°
2026-04-30 06:45 55.56199 12.52789 3158 ft 189 kts 282°
2026-04-30 06:45 55.56459 12.50430 3552 ft 206 kts 284°
2026-04-30 06:46 55.56740 12.47857 3984 ft 223 kts 283°
2026-04-30 06:46 55.57002 12.45067 4447 ft 240 kts 282°
2026-04-30 06:46 55.57267 12.42078 4935 ft 255 kts 282°
2026-04-30 06:46 55.57508 12.38918 5570 ft 265 kts 281°
2026-04-30 06:47 55.57729 12.35700 6323 ft 267 kts 286°
2026-04-30 06:47 55.58516 12.32806 6978 ft 264 kts 315°
2026-04-30 06:47 55.59955 12.30972 7758 ft 256 kts 341°
2026-04-30 06:47 55.61676 12.30219 8417 ft 258 kts 354°
2026-04-30 06:48 55.63450 12.29837 9154 ft 260 kts 358°
2026-04-30 06:48 55.65238 12.29611 9924 ft 260 kts 360°
2026-04-30 06:48 55.67033 12.29395 10656 ft 263 kts 359°
2026-04-30 06:48 55.68878 12.29099 11133 ft 275 kts 358°
2026-04-30 06:49 55.70839 12.28755 11472 ft 292 kts 358°
2026-04-30 06:49 55.72891 12.28377 12054 ft 301 kts 358°
2026-04-30 06:49 55.74967 12.27985 12789 ft 303 kts 358°
2026-04-30 06:49 55.77045 12.27329 13510 ft 309 kts 349°
2026-04-30 06:50 55.79075 12.25985 14235 ft 317 kts 340°
2026-04-30 06:50 55.81023 12.24069 14934 ft 323 kts 335°
2026-04-30 06:50 55.82952 12.22017 15616 ft 327 kts 335°
2026-04-30 06:50 55.84899 12.19924 16263 ft 330 kts 335°
2026-04-30 06:51 55.86864 12.17807 16910 ft 334 kts 335°
2026-04-30 06:51 55.88852 12.15670 17571 ft 336 kts 335°
2026-04-30 06:51 55.90860 12.13514 18214 ft 339 kts 335°
2026-04-30 06:51 55.92879 12.11348 18869 ft 342 kts 335°
2026-04-30 06:52 55.94913 12.09162 19513 ft 345 kts 335°
2026-04-30 06:52 55.96966 12.06955 20142 ft 347 kts 335°
2026-04-30 06:52 55.99034 12.04729 20737 ft 351 kts 335°
2026-04-30 06:52 56.01126 12.02473 21323 ft 354 kts 335°
2026-04-30 06:53 56.03226 12.00206 21918 ft 356 kts 335°
2026-04-30 06:53 56.05363 11.97971 22482 ft 358 kts 336°
2026-04-30 06:53 56.07530 11.95787 23025 ft 361 kts 336°
2026-04-30 06:53 56.09715 11.93590 23552 ft 364 kts 336°
2026-04-30 06:54 56.11927 11.91362 24062 ft 367 kts 336°
2026-04-30 06:54 56.14150 11.89112 24580 ft 370 kts 336°
2026-04-30 06:54 56.16389 11.86839 25072 ft 373 kts 336°
2026-04-30 06:54 56.18646 11.84541 25581 ft 376 kts 335°
2026-04-30 06:55 56.20919 11.82224 26076 ft 378 kts 335°
2026-04-30 06:55 56.23967 11.79110 26727 ft 381 kts 335°
2026-04-30 06:55 56.25499 11.77544 27034 ft 383 kts 335°
2026-04-30 06:55 56.27812 11.75174 27473 ft 386 kts 335°
2026-04-30 06:56 56.30138 11.72779 27914 ft 389 kts 334°
2026-04-30 06:56 56.32385 11.70056 28364 ft 394 kts 328°
2026-04-30 06:56 56.34486 11.66871 28787 ft 400 kts 322°
2026-04-30 06:56 56.36424 11.63256 29205 ft 405 kts 317°
2026-04-30 06:57 56.38300 11.59471 29603 ft 408 kts 317°
2026-04-30 06:57 56.40171 11.55636 29994 ft 410 kts 316°
2026-04-30 06:57 56.42051 11.51774 30372 ft 412 kts 316°
2026-04-30 06:57 56.43939 11.47895 30754 ft 414 kts 316°
2026-04-30 06:58 56.45834 11.43998 31134 ft 416 kts 316°
2026-04-30 06:58 56.47738 11.40082 31473 ft 418 kts 316°
2026-04-30 06:58 56.49653 11.36138 31801 ft 420 kts 316°
2026-04-30 06:58 56.51582 11.32164 32137 ft 423 kts 315°
2026-04-30 06:59 56.53514 11.28173 32451 ft 425 kts 315°
2026-04-30 06:59 56.55456 11.24158 32757 ft 427 kts 315°
2026-04-30 06:59 56.57406 11.20122 33059 ft 429 kts 315°
2026-04-30 06:59 56.59368 11.16055 33352 ft 431 kts 315°
2026-04-30 07:00 56.61335 11.11971 33637 ft 433 kts 315°
2026-04-30 07:00 56.63310 11.07859 33917 ft 435 kts 315°
2026-04-30 07:00 56.65291 11.03727 34210 ft 437 kts 315°
2026-04-30 07:00 56.67280 10.99574 34479 ft 439 kts 315°
2026-04-30 07:01 56.69275 10.95402 34814 ft 439 kts 315°
2026-04-30 07:01 56.71262 10.91236 35246 ft 437 kts 314°
2026-04-30 07:01 56.73238 10.87083 35680 ft 436 kts 315°
2026-04-30 07:01 56.75209 10.82940 36070 ft 435 kts 314°
2026-04-30 07:02 56.77176 10.78796 36436 ft 434 kts 314°
2026-04-30 07:02 56.79788 10.73282 36909 ft 433 kts 314°
2026-04-30 07:02 56.81090 10.70528 37123 ft 432 kts 314°
2026-04-30 07:02 56.83042 10.66396 37443 ft 432 kts 314°
2026-04-30 07:03 56.84990 10.62265 37752 ft 431 kts 314°
2026-04-30 07:03 56.86937 10.58127 38020 ft 431 kts 314°
2026-04-30 07:03 56.88881 10.53988 38280 ft 431 kts 314°
2026-04-30 07:03 56.90827 10.49840 38527 ft 432 kts 314°
2026-04-30 07:04 56.92771 10.45690 38760 ft 432 kts 314°
2026-04-30 07:04 56.94715 10.41530 38967 ft 433 kts 314°
2026-04-30 07:04 56.96661 10.37358 39153 ft 434 kts 314°
2026-04-30 07:04 56.98615 10.33162 39326 ft 435 kts 313°
2026-04-30 07:05 57.02526 10.24742 39651 ft 437 kts 313°
2026-04-30 07:05 57.04487 10.20508 39813 ft 438 kts 313°
2026-04-30 07:05 57.06451 10.16256 39980 ft 439 kts 313°
2026-04-30 07:06 57.08414 10.12005 40149 ft 439 kts 313°
2026-04-30 07:06 57.10385 10.07729 40288 ft 441 kts 313°
2026-04-30 07:06 57.12357 10.03442 40417 ft 442 kts 313°
2026-04-30 07:06 57.14339 9.99126 40447 ft 443 kts 313°
2026-04-30 07:07 57.18302 9.90469 40455 ft 444 kts 312°
2026-04-30 07:07 57.22260 9.81792 40459 ft 444 kts 312°
2026-04-30 07:08 57.26208 9.73101 40461 ft 444 kts 312°
2026-04-30 07:08 57.30150 9.64395 40458 ft 444 kts 312°
2026-04-30 07:09 57.34089 9.55665 40453 ft 444 kts 312°
2026-04-30 07:09 57.38021 9.46920 40441 ft 444 kts 312°
2026-04-30 07:10 57.41951 9.38144 40436 ft 445 kts 312°
2026-04-30 07:10 57.45876 9.29346 40438 ft 445 kts 311°
2026-04-30 07:11 57.49806 9.20505 40434 ft 445 kts 311°
2026-04-30 07:11 57.53723 9.11660 40431 ft 446 kts 311°
2026-04-30 07:12 57.57642 9.02780 40424 ft 446 kts 310°
2026-04-30 07:12 57.61552 8.93883 40413 ft 446 kts 310°
2026-04-30 07:13 57.65457 8.84958 40410 ft 446 kts 310°
2026-04-30 07:13 57.69510 8.76262 40398 ft 446 kts 314°
2026-04-30 07:14 57.73743 8.67867 40400 ft 446 kts 315°
2026-04-30 07:14 57.77982 8.59458 40405 ft 446 kts 314°
2026-04-30 07:15 57.82214 8.51016 40393 ft 447 kts 314°
2026-04-30 07:15 57.86445 8.42538 40402 ft 447 kts 314°
2026-04-30 07:16 57.90668 8.34040 40387 ft 447 kts 313°
2026-04-30 07:16 57.94886 8.25519 40392 ft 447 kts 313°
2026-04-30 07:17 57.99793 8.15569 40393 ft 446 kts 313°
2026-04-30 07:18 58.05398 8.04149 40388 ft 448 kts 313°
2026-04-30 07:18 58.09602 7.95539 40397 ft 448 kts 313°
2026-04-30 07:19 58.13803 7.86876 40403 ft 449 kts 311°
2026-04-30 07:19 58.17657 7.77668 40410 ft 449 kts 306°
2026-04-30 07:20 58.21082 7.67852 40413 ft 448 kts 303°
2026-04-30 07:20 58.24430 7.57955 40414 ft 448 kts 303°
2026-04-30 07:21 58.27771 7.48052 40416 ft 447 kts 303°
2026-04-30 07:21 58.31106 7.38141 40413 ft 447 kts 303°
2026-04-30 07:22 58.36094 7.23246 40392 ft 446 kts 302°
2026-04-30 07:22 58.39409 7.13299 40414 ft 447 kts 302°
2026-04-30 07:23 58.42715 7.03338 40423 ft 447 kts 302°
2026-04-30 07:23 58.46016 6.93350 40430 ft 447 kts 302°
2026-04-30 07:24 58.49306 6.83349 40424 ft 447 kts 302°
2026-04-30 07:24 58.52587 6.73334 40427 ft 446 kts 302°
2026-04-30 07:25 58.56395 6.61662 40428 ft 445 kts 302°
2026-04-30 07:25 58.59107 6.53312 40427 ft 445 kts 302°
2026-04-30 07:26 58.62355 6.43272 40430 ft 445 kts 302°
2026-04-30 07:26 58.65603 6.33191 40429 ft 445 kts 302°
2026-04-30 07:27 58.68839 6.23103 40421 ft 445 kts 302°
2026-04-30 07:27 58.72064 6.13007 40439 ft 444 kts 302°
2026-04-30 07:28 58.75267 6.02933 40453 ft 443 kts 302°
2026-04-30 07:28 58.78470 5.92818 40455 ft 443 kts 302°
2026-04-30 07:29 58.81662 5.82692 40457 ft 444 kts 302°
2026-04-30 07:29 58.84855 5.72516 40459 ft 444 kts 302°
2026-04-30 07:30 58.90104 5.57865 40472 ft 444 kts 309°
2026-04-30 07:31 58.93981 5.48648 40472 ft 443 kts 310°
2026-04-30 07:31 58.97867 5.39440 40474 ft 443 kts 309°
2026-04-30 07:32 59.01737 5.30214 40475 ft 442 kts 309°
2026-04-30 07:32 59.05604 5.20946 40465 ft 443 kts 309°
2026-04-30 07:33 59.09465 5.11654 40459 ft 444 kts 309°
2026-04-30 07:33 59.13322 5.02338 40456 ft 444 kts 309°
2026-04-30 07:34 59.17175 4.92994 40455 ft 444 kts 308°
2026-04-30 07:34 59.21014 4.83647 40456 ft 443 kts 308°
2026-04-30 07:35 59.24839 4.74292 40458 ft 443 kts 308°
2026-04-30 07:35 59.28658 4.64916 40462 ft 443 kts 308°
2026-04-30 07:36 59.32473 4.55513 40462 ft 443 kts 308°
2026-04-30 07:36 59.36283 4.46082 40466 ft 444 kts 308°
2026-04-30 07:37 59.40093 4.36613 40464 ft 444 kts 308°
2026-04-30 07:37 59.43896 4.27126 40461 ft 444 kts 307°
2026-04-30 07:38 59.47690 4.17620 40461 ft 444 kts 307°
2026-04-30 07:38 59.51481 4.08087 40460 ft 444 kts 307°
2026-04-30 07:39 59.55268 3.98523 40460 ft 445 kts 307°
2026-04-30 07:39 59.59050 3.88927 40463 ft 445 kts 307°
2026-04-30 07:40 59.62823 3.79318 40469 ft 445 kts 307°
2026-04-30 07:40 59.66590 3.69688 40470 ft 445 kts 307°
2026-04-30 07:41 59.70350 3.60033 40471 ft 445 kts 307°
2026-04-30 07:41 59.74103 3.50358 40458 ft 445 kts 307°
2026-04-30 07:42 59.77854 3.40645 40450 ft 445 kts 307°
2026-04-30 07:42 59.81605 3.30892 40451 ft 446 kts 306°
2026-04-30 07:43 59.85347 3.21124 40454 ft 446 kts 306°
2026-04-30 07:43 59.89079 3.11340 40455 ft 446 kts 306°
2026-04-30 07:44 59.92796 3.01555 40452 ft 444 kts 306°
2026-04-30 07:44 59.96506 2.91746 40445 ft 446 kts 306°
2026-04-30 07:45 60.00218 2.81892 40440 ft 447 kts 306°
2026-04-30 07:45 60.03932 2.71993 40437 ft 447 kts 306°
2026-04-30 07:46 60.07643 2.62057 40438 ft 448 kts 306°
2026-04-30 07:46 60.11342 2.52109 40429 ft 448 kts 306°
2026-04-30 07:47 60.15037 2.42131 40429 ft 448 kts 306°
2026-04-30 07:47 60.18728 2.32123 40422 ft 448 kts 304°
2026-04-30 07:48 60.22412 2.22087 40422 ft 448 kts 304°
2026-04-30 07:48 60.26093 2.12021 40418 ft 449 kts 304°
2026-04-30 07:49 60.29770 2.01923 40414 ft 450 kts 304°
2026-04-30 07:49 60.33448 1.91776 40417 ft 450 kts 304°
2026-04-30 07:50 60.37118 1.81606 40415 ft 450 kts 304°
2026-04-30 07:50 60.40781 1.71410 40413 ft 450 kts 304°
2026-04-30 07:51 60.44433 1.61202 40405 ft 450 kts 304°
2026-04-30 07:51 60.48077 1.50966 40399 ft 450 kts 304°
2026-04-30 07:52 60.51711 1.40717 40400 ft 450 kts 304°
2026-04-30 07:52 60.55342 1.30433 40391 ft 450 kts 303°
2026-04-30 07:53 60.58965 1.20120 40393 ft 451 kts 303°
2026-04-30 07:53 60.62588 1.09769 40381 ft 451 kts 303°
2026-04-30 07:54 60.66203 0.99395 40376 ft 451 kts 303°
2026-04-30 07:54 60.69810 0.89000 40378 ft 451 kts 302°
2026-04-30 07:55 60.73404 0.78588 40381 ft 450 kts 302°
2026-04-30 07:55 60.76986 0.68165 40376 ft 451 kts 302°
2026-04-30 07:56 60.80566 0.57700 40372 ft 451 kts 302°
2026-04-30 07:56 60.84139 0.47211 40371 ft 452 kts 302°
2026-04-30 07:57 60.87713 0.36672 40362 ft 453 kts 302°
2026-04-30 07:57 60.91285 0.26084 40361 ft 453 kts 301°
2026-04-30 07:58 60.94852 0.15462 40341 ft 455 kts 301°
2026-04-30 07:58 60.98416 0.04780 40351 ft 455 kts 300°
2026-04-30 07:59 61.01619 -0.06352 40339 ft 453 kts 295°
2026-04-30 07:59 61.04495 -0.17805 40335 ft 451 kts 294°
2026-04-30 08:00 61.08753 -0.34989 40321 ft 450 kts 294°
2026-04-30 08:00 61.11588 -0.46472 40322 ft 450 kts 294°
2026-04-30 08:01 61.14414 -0.57978 40327 ft 451 kts 294°
2026-04-30 08:01 61.17232 -0.69503 40328 ft 451 kts 293°
2026-04-30 08:02 61.21439 -0.86823 40317 ft 451 kts 293°
2026-04-30 08:03 61.27029 -1.10047 40309 ft 452 kts 292°
2026-04-30 08:04 61.29805 -1.21676 40299 ft 451 kts 292°
2026-04-30 08:04 61.32553 -1.33232 40299 ft 441 kts 292°
2026-04-30 08:05 61.35235 -1.44584 40297 ft 438 kts 292°
2026-04-30 08:05 61.37881 -1.55853 40296 ft 433 kts 292°
2026-04-30 08:06 61.40507 -1.67086 40296 ft 433 kts 291°
2026-04-30 08:06 61.43122 -1.78333 40298 ft 433 kts 291°
2026-04-30 08:07 61.45732 -1.89612 40293 ft 432 kts 291°
2026-04-30 08:07 61.48330 -2.00900 40290 ft 433 kts 291°
2026-04-30 08:08 61.50916 -2.12195 40277 ft 433 kts 291°
2026-04-30 08:08 61.53492 -2.23512 40270 ft 433 kts 291°
2026-04-30 08:09 61.56063 -2.34868 40269 ft 433 kts 291°
2026-04-30 08:09 61.58620 -2.46225 40263 ft 433 kts 291°
2026-04-30 08:10 61.61170 -2.57598 40262 ft 432 kts 291°
2026-04-30 08:10 61.63709 -2.68991 40260 ft 432 kts 290°
2026-04-30 08:11 61.66234 -2.80378 40261 ft 432 kts 290°
2026-04-30 08:11 61.68747 -2.91769 40259 ft 432 kts 289°
2026-04-30 08:12 61.71258 -3.03214 40250 ft 432 kts 289°
2026-04-30 08:12 61.73755 -3.14672 40254 ft 433 kts 289°
2026-04-30 08:13 61.76250 -3.26176 40255 ft 434 kts 289°
2026-04-30 08:13 61.78739 -3.37706 40249 ft 433 kts 289°
2026-04-30 08:14 61.81212 -3.49226 40251 ft 432 kts 289°
2026-04-30 08:14 61.83673 -3.60762 40250 ft 432 kts 289°
2026-04-30 08:15 61.86162 -3.72492 40241 ft 432 kts 288°
2026-04-30 08:15 61.88569 -3.83902 40237 ft 432 kts 288°
2026-04-30 08:16 61.91004 -3.95502 40236 ft 432 kts 288°
2026-04-30 08:16 61.93430 -4.07132 40229 ft 433 kts 288°
2026-04-30 08:17 61.95846 -4.18779 40223 ft 434 kts 288°
2026-04-30 08:17 61.98254 -4.30450 40223 ft 433 kts 288°
2026-04-30 08:18 62.00648 -4.42110 40219 ft 432 kts 288°
2026-04-30 08:18 62.03028 -4.53780 40211 ft 432 kts 288°
2026-04-30 08:19 62.05402 -4.65487 40197 ft 432 kts 287°
2026-04-30 08:19 62.07762 -4.77180 40197 ft 431 kts 287°
2026-04-30 08:20 62.10108 -4.88883 40194 ft 432 kts 287°
2026-04-30 08:20 62.12445 -5.00601 40201 ft 431 kts 287°
2026-04-30 08:21 62.14772 -5.12343 40201 ft 432 kts 287°
2026-04-30 08:21 62.17097 -5.24135 40198 ft 431 kts 287°
2026-04-30 08:22 62.19405 -5.35917 40198 ft 431 kts 287°
2026-04-30 08:22 62.21702 -5.47708 40195 ft 431 kts 287°
2026-04-30 08:23 62.23987 -5.59505 40191 ft 431 kts 287°
2026-04-30 08:23 62.26260 -5.71318 40185 ft 430 kts 286°
2026-04-30 08:24 62.28520 -5.83128 40183 ft 430 kts 286°
2026-04-30 08:24 62.30773 -5.94968 40181 ft 430 kts 286°
2026-04-30 08:25 62.33014 -6.06818 40178 ft 430 kts 286°
2026-04-30 08:25 62.35244 -6.18684 40165 ft 431 kts 286°
2026-04-30 08:26 62.37471 -6.30605 40165 ft 431 kts 286°
2026-04-30 08:26 62.39687 -6.42541 40159 ft 431 kts 286°
2026-04-30 08:27 62.41892 -6.54490 40149 ft 431 kts 286°
2026-04-30 08:27 62.44090 -6.66467 40157 ft 432 kts 285°
2026-04-30 08:28 62.46274 -6.78444 40147 ft 431 kts 285°
2026-04-30 08:28 62.48449 -6.90442 40141 ft 430 kts 285°
2026-04-30 08:29 62.50607 -7.02424 40144 ft 429 kts 285°
2026-04-30 08:29 62.52752 -7.14414 40137 ft 429 kts 285°
2026-04-30 08:30 62.54886 -7.26416 40135 ft 429 kts 285°
2026-04-30 08:30 62.57010 -7.38429 40130 ft 429 kts 285°
2026-04-30 08:31 62.59124 -7.50473 40131 ft 430 kts 285°
2026-04-30 08:31 62.61230 -7.62538 40123 ft 430 kts 285°
2026-04-30 08:32 62.63326 -7.74630 40114 ft 430 kts 284°
2026-04-30 08:32 62.65412 -7.86735 40101 ft 429 kts 284°
2026-04-30 08:33 62.67487 -7.98855 40112 ft 431 kts 284°
2026-04-30 08:33 62.69556 -8.11010 40097 ft 430 kts 284°
2026-04-30 08:34 62.71613 -8.23188 40090 ft 431 kts 284°
2026-04-30 08:34 62.73659 -8.35367 40073 ft 430 kts 284°
2026-04-30 08:35 62.75689 -8.47539 40081 ft 429 kts 284°
2026-04-30 08:35 62.77709 -8.59733 40084 ft 429 kts 284°
2026-04-30 08:36 62.79718 -8.71947 40091 ft 429 kts 283°
2026-04-30 08:36 62.81719 -8.84184 40081 ft 429 kts 283°
2026-04-30 08:37 62.83707 -8.96418 40083 ft 429 kts 283°
2026-04-30 08:37 62.85687 -9.08685 40081 ft 430 kts 283°
2026-04-30 08:38 62.87656 -9.20964 40073 ft 429 kts 283°
2026-04-30 08:38 62.89615 -9.33265 40063 ft 430 kts 283°
2026-04-30 08:39 62.91563 -9.45589 40057 ft 430 kts 283°
2026-04-30 08:39 62.93500 -9.57924 40041 ft 429 kts 283°
2026-04-30 08:40 62.95420 -9.70240 40033 ft 427 kts 282°
2026-04-30 08:40 62.97324 -9.82534 40025 ft 428 kts 282°
2026-04-30 08:41 62.99218 -9.94863 40018 ft 427 kts 282°
2026-04-30 08:41 63.01081 -10.07216 40005 ft 427 kts 282°
2026-04-30 08:42 63.02899 -10.19614 39996 ft 428 kts 282°
2026-04-30 08:42 63.04709 -10.32032 40001 ft 428 kts 282°
2026-04-30 08:43 63.06508 -10.44458 39988 ft 427 kts 282°
2026-04-30 08:43 63.08293 -10.56865 39985 ft 427 kts 282°
2026-04-30 08:44 63.10071 -10.69326 39987 ft 428 kts 281°
2026-04-30 08:44 63.11835 -10.81775 39969 ft 426 kts 281°
2026-04-30 08:45 63.13582 -10.94192 39983 ft 425 kts 281°
2026-04-30 08:45 63.15316 -11.06616 39957 ft 425 kts 281°
2026-04-30 08:46 63.17038 -11.19049 39975 ft 424 kts 281°
2026-04-30 08:46 63.18749 -11.31483 39967 ft 424 kts 281°
2026-04-30 08:47 63.20449 -11.43936 39974 ft 425 kts 281°
2026-04-30 08:47 63.22136 -11.56385 39975 ft 424 kts 281°
2026-04-30 08:48 63.23814 -11.68864 39986 ft 423 kts 280°
2026-04-30 08:48 63.25478 -11.81331 39980 ft 423 kts 280°
2026-04-30 08:49 63.27129 -11.93815 39987 ft 424 kts 280°
2026-04-30 08:49 63.28773 -12.06318 39983 ft 424 kts 280°
2026-04-30 08:50 63.30406 -12.18850 39984 ft 424 kts 280°
2026-04-30 08:50 63.32027 -12.31378 39979 ft 424 kts 280°
2026-04-30 08:51 63.33635 -12.43905 39979 ft 422 kts 280°
2026-04-30 08:51 63.35230 -12.56437 39978 ft 423 kts 280°
2026-04-30 08:52 63.36811 -12.68972 39969 ft 422 kts 279°
2026-04-30 08:52 63.38383 -12.81511 39959 ft 423 kts 279°
2026-04-30 08:53 63.39946 -12.94092 39953 ft 423 kts 279°
2026-04-30 08:53 63.41497 -13.06676 39951 ft 423 kts 279°
2026-04-30 08:54 63.43037 -13.19291 39957 ft 424 kts 279°
2026-04-30 08:54 63.44572 -13.31956 39949 ft 425 kts 279°
2026-04-30 08:55 63.46096 -13.44643 39944 ft 425 kts 279°
2026-04-30 08:55 63.47611 -13.57348 39943 ft 425 kts 280°
2026-04-30 08:56 63.49114 -13.70067 39948 ft 425 kts 279°
2026-04-30 08:56 63.50604 -13.82784 39940 ft 424 kts 279°
2026-04-30 08:57 63.52084 -13.95530 39939 ft 424 kts 279°
2026-04-30 08:57 63.53552 -14.08275 39941 ft 424 kts 279°
2026-04-30 08:58 63.55008 -14.21041 39946 ft 425 kts 279°
2026-04-30 08:58 63.56456 -14.33828 39941 ft 425 kts 279°
2026-04-30 08:59 63.57890 -14.46625 39938 ft 425 kts 279°
2026-04-30 08:59 63.59315 -14.59449 39941 ft 426 kts 279°
2026-04-30 09:00 63.60729 -14.72312 39945 ft 426 kts 278°
2026-04-30 09:00 63.62135 -14.85182 39942 ft 426 kts 278°
2026-04-30 09:01 63.63527 -14.98073 39937 ft 426 kts 278°
2026-04-30 09:01 63.64910 -15.10973 39933 ft 427 kts 278°
2026-04-30 09:02 63.66966 -15.30363 39935 ft 427 kts 278°
2026-04-30 09:02 63.68320 -15.43324 39936 ft 427 kts 278°
2026-04-30 09:03 63.69663 -15.56284 39934 ft 426 kts 278°
2026-04-30 09:03 63.70990 -15.69209 39940 ft 425 kts 277°
2026-04-30 09:04 63.72304 -15.82146 39940 ft 425 kts 277°
2026-04-30 09:04 63.73605 -15.95079 39940 ft 424 kts 277°
2026-04-30 09:05 63.74895 -16.08013 39939 ft 425 kts 277°
2026-04-30 09:05 63.76171 -16.20967 39937 ft 424 kts 278°
2026-04-30 09:06 63.77442 -16.33968 39944 ft 425 kts 278°
2026-04-30 09:06 63.78700 -16.46977 39935 ft 426 kts 277°
2026-04-30 09:07 63.79937 -16.60030 39931 ft 425 kts 277°
2026-04-30 09:07 63.80787 -16.73209 39767 ft 425 kts 272°
2026-04-30 09:08 63.81457 -16.86433 39594 ft 426 kts 272°
2026-04-30 09:08 63.81786 -16.93041 39407 ft 422 kts 272°
2026-04-30 09:08 63.82111 -16.99594 39096 ft 420 kts 272°
2026-04-30 09:09 63.82432 -17.06121 38880 ft 418 kts 272°
2026-04-30 09:09 63.82747 -17.12631 38652 ft 420 kts 272°
2026-04-30 09:09 63.83059 -17.19160 38464 ft 418 kts 272°
2026-04-30 09:09 63.83369 -17.25667 38254 ft 419 kts 272°
2026-04-30 09:10 63.83676 -17.32202 38014 ft 419 kts 272°
2026-04-30 09:10 63.83982 -17.38729 37814 ft 418 kts 272°
2026-04-30 09:10 63.84283 -17.45256 37518 ft 420 kts 272°
2026-04-30 09:10 63.84586 -17.51837 36954 ft 424 kts 271°
2026-04-30 09:11 63.84890 -17.58466 36364 ft 428 kts 271°
2026-04-30 09:11 63.85192 -17.65146 35801 ft 430 kts 270°
2026-04-30 09:11 63.85489 -17.71854 35288 ft 431 kts 269°
2026-04-30 09:11 63.85786 -17.78576 34732 ft 432 kts 269°
2026-04-30 09:12 63.86079 -17.85316 34162 ft 433 kts 269°
2026-04-30 09:12 63.86367 -17.92067 33631 ft 433 kts 269°
2026-04-30 09:12 63.86656 -17.98800 33255 ft 429 kts 268°
2026-04-30 09:12 63.86938 -18.05456 32903 ft 425 kts 268°
2026-04-30 09:13 63.87212 -18.12058 32518 ft 421 kts 268°
2026-04-30 09:13 63.87481 -18.18615 32097 ft 419 kts 268°
2026-04-30 09:13 63.87741 -18.25122 31688 ft 416 kts 268°
2026-04-30 09:13 63.88002 -18.31602 31263 ft 414 kts 267°
2026-04-30 09:14 63.88257 -18.38045 30840 ft 411 kts 268°
2026-04-30 09:14 63.88509 -18.44455 30459 ft 409 kts 267°
2026-04-30 09:14 63.88754 -18.50832 30066 ft 407 kts 268°
2026-04-30 09:14 63.88995 -18.57181 29672 ft 405 kts 268°
2026-04-30 09:15 63.89230 -18.63502 29280 ft 404 kts 268°
2026-04-30 09:15 63.89464 -18.69815 28851 ft 402 kts 268°
2026-04-30 09:15 63.89697 -18.76096 28440 ft 401 kts 268°
2026-04-30 09:15 63.89925 -18.82343 28042 ft 399 kts 268°
2026-04-30 09:16 63.90150 -18.88562 27642 ft 397 kts 268°
2026-04-30 09:16 63.90372 -18.94759 27175 ft 394 kts 269°
2026-04-30 09:16 63.90589 -19.00892 26822 ft 390 kts 269°
2026-04-30 09:16 63.90801 -19.06978 26398 ft 388 kts 269°
2026-04-30 09:17 63.91010 -19.13024 25986 ft 384 kts 269°
2026-04-30 09:17 63.91214 -19.19007 25573 ft 381 kts 270°
2026-04-30 09:17 63.91414 -19.24949 25169 ft 377 kts 270°
2026-04-30 09:17 63.91611 -19.30827 24793 ft 373 kts 270°
2026-04-30 09:18 63.91802 -19.36648 24427 ft 370 kts 270°
2026-04-30 09:18 63.91989 -19.42414 24032 ft 366 kts 270°
2026-04-30 09:18 63.92173 -19.48129 23663 ft 362 kts 270°
2026-04-30 09:18 63.92354 -19.53774 23298 ft 358 kts 270°
2026-04-30 09:19 63.92528 -19.59361 22930 ft 354 kts 270°
2026-04-30 09:19 63.92698 -19.64896 22575 ft 351 kts 270°
2026-04-30 09:19 63.92864 -19.70388 22192 ft 348 kts 270°
2026-04-30 09:19 63.93029 -19.75830 21818 ft 345 kts 270°
2026-04-30 09:20 63.93187 -19.81228 21447 ft 342 kts 270°
2026-04-30 09:20 63.93345 -19.86574 21078 ft 339 kts 270°
2026-04-30 09:20 63.93499 -19.91871 20725 ft 336 kts 270°
2026-04-30 09:20 63.93648 -19.97116 20377 ft 333 kts 270°
2026-04-30 09:21 63.93795 -20.02312 20033 ft 329 kts 270°
2026-04-30 09:21 63.93940 -20.07466 19685 ft 327 kts 270°
2026-04-30 09:21 63.94080 -20.12574 19334 ft 324 kts 270°
2026-04-30 09:21 63.94217 -20.17644 18981 ft 322 kts 270°
2026-04-30 09:22 63.94351 -20.22678 18633 ft 319 kts 270°
2026-04-30 09:22 63.94482 -20.27677 18288 ft 317 kts 270°
2026-04-30 09:22 63.94612 -20.32650 17938 ft 315 kts 270°
2026-04-30 09:22 63.94743 -20.37587 17586 ft 313 kts 270°
2026-04-30 09:23 63.94877 -20.42498 17243 ft 311 kts 270°
2026-04-30 09:23 63.95009 -20.47363 16910 ft 309 kts 270°
2026-04-30 09:23 63.95138 -20.52205 16573 ft 307 kts 270°
2026-04-30 09:23 63.95265 -20.57010 16235 ft 305 kts 270°
2026-04-30 09:24 63.95389 -20.61783 15901 ft 303 kts 270°
2026-04-30 09:24 63.95510 -20.66528 15569 ft 301 kts 269°
2026-04-30 09:24 63.95628 -20.71252 15237 ft 299 kts 269°
2026-04-30 09:24 63.95746 -20.75947 14911 ft 297 kts 269°
2026-04-30 09:25 63.95860 -20.80611 14578 ft 296 kts 269°
2026-04-30 09:25 63.95973 -20.85246 14246 ft 294 kts 269°
2026-04-30 09:25 63.96083 -20.89867 13918 ft 293 kts 269°
2026-04-30 09:25 63.96191 -20.94467 13576 ft 292 kts 269°
2026-04-30 09:26 63.96296 -20.99051 13240 ft 291 kts 269°
2026-04-30 09:26 63.96399 -21.03610 13013 ft 286 kts 269°
2026-04-30 09:26 63.96500 -21.08052 13007 ft 277 kts 269°
2026-04-30 09:26 63.96599 -21.12315 13008 ft 266 kts 269°
2026-04-30 09:27 63.96691 -21.16523 12816 ft 269 kts 269°
2026-04-30 09:27 63.96783 -21.20748 12536 ft 267 kts 269°
2026-04-30 09:27 63.96873 -21.24940 12236 ft 266 kts 269°
2026-04-30 09:27 63.96960 -21.29123 11926 ft 265 kts 269°
2026-04-30 09:28 63.97046 -21.33290 11616 ft 265 kts 269°
2026-04-30 09:28 63.97131 -21.37453 11341 ft 263 kts 269°
2026-04-30 09:28 63.97214 -21.41578 11131 ft 262 kts 269°
2026-04-30 09:28 63.97366 -21.45710 10995 ft 264 kts 276°
2026-04-30 09:29 63.97857 -21.49763 10904 ft 271 kts 287°
2026-04-30 09:29 63.98606 -21.53672 10707 ft 269 kts 290°
2026-04-30 09:29 63.99389 -21.57516 10399 ft 269 kts 290°
2026-04-30 09:29 64.00176 -21.61357 10091 ft 268 kts 290°
2026-04-30 09:30 64.00958 -21.65193 9798 ft 268 kts 289°
2026-04-30 09:30 64.01735 -21.69027 9522 ft 267 kts 289°
2026-04-30 09:30 64.02505 -21.72844 9240 ft 266 kts 290°
2026-04-30 09:30 64.03270 -21.76648 8895 ft 264 kts 290°
2026-04-30 09:31 64.04032 -21.80444 8447 ft 263 kts 290°
2026-04-30 09:31 64.04790 -21.84227 8013 ft 262 kts 289°
2026-04-30 09:31 64.05546 -21.88013 7673 ft 262 kts 289°
2026-04-30 09:31 64.06301 -21.91813 7348 ft 264 kts 289°
2026-04-30 09:32 64.07060 -21.95623 7071 ft 263 kts 289°
2026-04-30 09:32 64.07808 -21.99380 6970 ft 261 kts 290°
2026-04-30 09:32 64.08563 -22.03195 6551 ft 267 kts 290°
2026-04-30 09:32 64.09322 -22.07031 6361 ft 263 kts 290°
2026-04-30 09:33 64.10069 -22.10807 6156 ft 260 kts 290°
2026-04-30 09:33 64.10808 -22.14565 5893 ft 259 kts 290°
2026-04-30 09:33 64.11547 -22.18319 5637 ft 258 kts 290°
2026-04-30 09:33 64.12279 -22.22048 5376 ft 257 kts 290°
2026-04-30 09:34 64.13010 -22.25775 5114 ft 257 kts 290°
2026-04-30 09:34 64.13733 -22.29471 4917 ft 253 kts 290°
2026-04-30 09:34 64.14442 -22.33093 4793 ft 247 kts 290°
2026-04-30 09:34 64.15134 -22.36633 4670 ft 241 kts 290°
2026-04-30 09:35 64.15824 -22.40077 4546 ft 237 kts 295°
2026-04-30 09:35 64.16798 -22.43107 4424 ft 236 kts 306°
2026-04-30 09:35 64.17889 -22.45850 4303 ft 231 kts 308°
2026-04-30 09:35 64.18879 -22.48631 4128 ft 221 kts 291°
2026-04-30 09:36 64.19373 -22.51884 3941 ft 213 kts 278°
2026-04-30 09:36 64.19311 -22.55101 3787 ft 200 kts 245°
2026-04-30 09:36 64.18506 -22.57565 3661 ft 192 kts 224°
2026-04-30 09:36 64.17493 -22.59455 3515 ft 184 kts 208°
2026-04-30 09:37 64.16300 -22.60298 3311 ft 176 kts 192°
2026-04-30 09:37 64.14729 -22.60534 3042 ft 165 kts 186°
2026-04-30 09:37 64.13983 -22.60549 2977 ft 155 kts 186°
2026-04-30 09:37 64.12957 -22.60549 2926 ft 143 kts 185°
2026-04-30 09:38 64.11992 -22.60504 2802 ft 135 kts 186°
2026-04-30 09:38 64.11063 -22.60504 2561 ft 132 kts 187°
2026-04-30 09:38 64.10143 -22.60528 2346 ft 132 kts 187°
2026-04-30 09:38 64.09229 -22.60572 2132 ft 131 kts 188°
2026-04-30 09:39 64.08320 -22.60587 1949 ft 131 kts 183°
2026-04-30 09:39 64.07422 -22.60477 1815 ft 129 kts 186°
2026-04-30 09:39 64.06520 -22.60479 1687 ft 131 kts 188°
2026-04-30 09:39 64.05624 -22.60550 1511 ft 128 kts 188°
2026-04-30 09:40 64.04732 -22.60542 1300 ft 128 kts 185°
2026-04-30 09:40 64.03847 -22.60524 1110 ft 128 kts 186°
2026-04-30 09:40 64.02955 -22.60534 956 ft 129 kts 186°
2026-04-30 09:40 64.02060 -22.60539 772 ft 128 kts 184°
2026-04-30 09:41 64.01177 -22.60519 584 ft 126 kts 185°
2026-04-30 09:41 64.00303 -22.60522 425 ft 126 kts 185°
2026-04-30 09:41 63.99426 -22.60541 251 ft 127 kts 185°
2026-04-30 09:41 63.98573 -22.60549 165 ft 114 kts 177°
2026-04-30 09:42 63.98053 -22.60548 171 ft 49 kts 182°
2026-04-30 09:42 63.97719 -22.60552 168 ft 46 kts 180°
2026-04-30 09:42 63.97502 -22.60565 162 ft 16 kts 193°
2026-04-30 09:42 63.97437 -22.60746 157 ft 13 kts 271°
2026-04-30 09:43 63.97475 -22.60927 156 ft 13 kts 335°
2026-04-30 09:43 63.97571 -22.60952 157 ft 13 kts 359°
2026-04-30 09:43 63.97667 -22.60953 159 ft 13 kts
2026-04-30 09:43 63.97764 -22.60949 159 ft 14 kts
2026-04-30 09:44 63.97870 -22.60947 160 ft 15 kts
2026-04-30 09:44 63.97976 -22.60951 162 ft 15 kts 359°
2026-04-30 09:44 63.98082 -22.60960 162 ft 15 kts 353°
2026-04-30 09:44 63.98168 -22.61106 159 ft 16 kts 329°
2026-04-30 09:45 63.98282 -22.61134 159 ft 16 kts
2026-04-30 09:45 63.98405 -22.61134 159 ft 18 kts
2026-04-30 09:45 63.98548 -22.61135 158 ft 23 kts 360°
2026-04-30 09:45 63.98710 -22.61138 157 ft 23 kts
2026-04-30 09:46 63.98877 -22.61141 155 ft 24 kts
2026-04-30 09:46 63.99044 -22.61140 155 ft 23 kts 360°
2026-04-30 09:46 63.99148 -22.61148 155 ft 8 kts 340°
2026-04-30 09:46 63.99172 -22.61277 153 ft 12 kts 274°
2026-04-30 09:47 63.99197 -22.61417 152 ft 7 kts 338°
2026-04-30 09:47 63.99254 -22.61465 152 ft 5 kts 296°
2026-04-30 09:47 63.99257 -22.61531 152 ft 7 kts 270°
2026-04-30 09:47 63.99257 -22.61599 152 ft 0 kts 271°